Skip Page Navigation
NASA JPL Caltech
NASA Logo - Jet Propulsion Laboratory + View the NASA Portal
+ Center for Near-Earth Object Studies
JPL Home Earth Solar System Stars & Galaxies Technology
JPL Solar System Dynamics
BODIES ORBITS EPHEMERIDES TOOLS PHYSICAL DATA DISCOVERY FAQ SITE MAP
IMPORTANT: The SSD Announcement email list is now available. Major changes are coming in the near future, including possible hostname and/or URL changes. To be notified of such changes, subscribe to this email list.

Please visit this page for more details.


JPL Small-Body Database Browser
Search: [ help ]  
134767 (2000 CS113)
Classification: Jupiter Trojan          SPK-ID: 2134767
Ephemeris | Orbit Diagram | Orbital Elements | Mission Design | Physical Parameters | Discovery Circumstances ]

[ show orbit diagram ]
Orbital Elements at Epoch 2459000.5 (2020-May-31.0) TDB
Reference: JPL 15 (heliocentric ecliptic J2000)
 Element Value Uncertainty (1-sigma)   Units 
e .04394244194581998 6.5135e-08  
a 5.322592895336896 1.7872e-07 au
q 5.088705166032321 4.6924e-07 au
i 10.07564772495823 6.5693e-06 deg
node 118.7938690950812 3.5554e-05 deg
peri 308.2009435262441 9.8926e-05 deg
M 291.2734424319322 9.7564e-05 deg
tp 2459856.759478762934
(2022-Oct-04.25947876)
0.0012367 TDB
period 4485.215370337119
12.28
0.00022591
6.185e-07
d
yr
n .08026370425394792 4.0427e-09 deg/d
Q 5.556480624641472 1.8658e-07 au
  Orbit Determination Parameters
   # obs. used (total)      334  
   data-arc span      7973 days (21.83 yr)  
   first obs. used      1997-11-30  
   last obs. used      2019-09-29  
   planetary ephem.      DE431  
   SB-pert. ephem.      SB431-N16  
   condition code      0  
   norm. resid. RMS      .64153  
   source      ORB  
   producer      Otto Matic  
   solution date      2019-Nov-07 15:51:18  

Additional Information
 Earth MOID = 4.11416 au 
 Jupiter MOID = .0982702 au 
 T_jup = 2.967 
[ show covariance matrix ]

Ephemeris | Orbit Diagram | Orbital Elements | Mission Design | Physical Parameters | Discovery Circumstances ]

Physical Parameter Table
Parameter Symbol Value Units Sigma Reference Notes
absolute magnitude H 12.6   n/a MPO453831  
diameter diameter 15.331 km 1.069 urn:nasa:pds:neowise_diameters_albedos::2.0[jupiter_trojans] (http://adsabs.harvard.edu/abs/2011ApJ...742...40G)  
geometric albedo albedo 0.090   0.027 urn:nasa:pds:neowise_diameters_albedos::2.0[jupiter_trojans] (http://adsabs.harvard.edu/abs/2011ApJ...742...40G)  

134767 (2000 CS113)          Discovered 2000-Feb-11 by LINEAR at Socorro
Reference: 20060907/Numbers.arcLast Updated: 2006-09-10
Ephemeris | Orbit Diagram | Orbital Elements | Mission Design | Physical Parameters | Discovery Circumstances ]
ABOUT SSD CREDITS/AWARDS PRIVACY/COPYRIGHT GLOSSARY LINKS
FirstGov 2020-Feb-20 22:18 UT
(server date/time)  
NASA Home Page
Site Manager:   Ryan S. Park
Webmaster  Alan B. Chamberlin